Terug naar catalogus

SL-8 DEB

ActiefPO
NORAD 29285·DEBRIS·🇷🇺 Russia

Gelanceerd Dec 17, 1981 vanaf Plesetsk Cosmodrome

Loading…

Volgende Passages (komende 24 uur)

TLE

VersSource: Space-Track

Epoch: Sep 13, 2026, 18:22 UTC

1 29285U 81120P   26256.76554560  .00000024  00000-0  15592-3 0  9998
2 29285  82.9514 257.1835 0046279 271.4873 266.0233 12.13436923587015

Volg SL-8 DEB in realtime met AllMySat

Download on the App Store